Lid_Strength_Index
-1 -1 -1 -1 -1 -0 -1 -1 -1 -1 -1 -1 -1 -1 -1 -1 -0 1 4 2 1 -1 1 3 4 4 3 4 4 6 10 11 9 10 9 7 8 8 8 8 8 6 7 5 2
-1 -1 -1 -1 0 1 -1 -1 -1 -1 -1 -1 -1 -1 -1 -1 1 3 1 -2 -2 -1 3 5 6 5 6 5 6 8 10 9 8 8 9 8 8 8 9 9 9 7 6 4 3
-1 -1 -1 -1 1 -0 -0 0 -1 -1 -1 -1 -1 -1 -1 -1 3 4 -1 -2 -2 1 3 4 5 6 7 6 7 7 10 8 8 7 7 8 9 8 9 10 8 8 7 4 4
-1 -1 -1 -0 -0 -0 -0 -0 -1 -1 -1 -1 -1 -1 -1 1 8 3 -1 -1 -1 2 3 4 6 7 8 9 7 10 8 8 7 7 8 8 7 9 8 9 7 7 6 4 4
-1 -1 -0 -0 -0 -0 -0 0 -0 -0 0 -1 -1 -1 1 4 4 2 -0 1 2 3 4 6 7 7 9 8 8 10 9 8 7 8 8 7 9 9 8 7 7 7 6 5 4
-1 -1 -1 -0 -0 -0 0 1 -1 0 -0 -1 -1 -1 2 7 1 2 3 3 3 4 5 5 7 6 8 8 9 8 8 8 8 8 8 9 9 9 8 7 7 7 8 7 6
-1 -1 -1 -0 0 0 0 0 0 -0 -0 -1 -1 1 4 5 1 2 3 3 3 4 5 4 5 6 7 9 7 8 10 9 9 8 9 9 10 10 8 8 8 8 8 7 7
-1 -1 -0 -0 -0 -0 -0 -0 -0 -0 -0 -1 -1 2 6 2 1 3 3 3 3 3 4 4 4 5 7 7 8 10 11 13 9 8 9 10 13 9 8 9 9 8 8 8 7
1 1 -0 -0 -0 -0 -0 -0 -0 -0 -0 -1 2 4 7 1 3 3 3 4 4 4 5 4 4 7 8 10 12 11 14 13 11 8 9 10 12 9 9 9 10 9 9 8 8
0 1 1 1 1 1 1 -0 -0 0 0 2 3 7 6 6 3 3 4 3 5 5 6 6 7 9 10 12 15 13 14 12 13 10 10 11 11 9 8 9 9 9 8 8 8
1 1 1 1 1 1 1 2 4 6 5 7 7 7 6 4 3 4 4 5 5 7 10 8 11 13 11 10 10 11 12 13 11 10 11 11 11 10 9 9 10 9 9 8 8
2 2 1 1 1 1 2 4 4 3 7 5 6 6 4 3 6 5 4 7 7 10 8 10 13 9 8 9 10 11 12 13 11 10 12 12 12 10 9 9 9 9 9 8 8
3 3 2 1 1 2 2 3 1 2 7 7 6 7 6 4 6 6 5 6 8 9 10 11 10 8 9 11 11 12 12 12 12 11 11 13 13 12 10 9 9 8 8 8 8
3 3 3 0 2 1 3 1 1 2 11 9 8 6 6 5 8 5 5 6 8 10 9 10 9 9 11 11 10 13 10 11 11 13 16 12 18 14 11 11 9 9 9 9 8
4 4 4 2 2 3 2 1 1 3 19 8 8 4 5 7 8 7 5 7 9 9 10 11 11 11 11 10 9 11 10 11 11 13 14 15 17 15 12 12 11 9 9 8 7
5 4 4 2 1 1 0 1 2 12 19 10 7 8 9 8 8 7 7 6 7 9 10 10 9 9 10 9 9 9 10 11 12 13 18 14 15 16 14 12 12 10 10 8 8
5 5 5 4 4 1 0 4 13 18 9 11 11 9 9 10 9 8 9 10 11 13 13 11 11 10 9 11 10 10 12 17 18 19 20 15 16 14 12 10 11 10 10 9 9
5 6 4 5 3 1 2 9 17 13 12 8 9 9 11 9 10 9 10 11 10 11 13 14 15 11 9 10 11 11 12 16 20 20 18 16 18 15 11 11 10 9 9 9 8
5 5 6 4 4 2 7 15 15 12 9 10 10 11 12 10 10 11 11 11 9 9 13 13 13 10 10 9 9 12 13 11 14 19 19 16 15 12 11 11 10 10 10 10 8
7 7 7 3 3 4 9 12 11 8 8 9 13 11 13 11 12 12 12 10 10 8 8 11 14 11 11 10 10 11 10 15 15 21 22 18 17 16 13 11 10 11 10 9 9
5 8 4 2 2 6 13 12 10 7 7 10 11 11 11 11 12 12 11 11 10 10 9 10 12 14 12 13 13 13 13 13 13 15 18 20 18 13 12 11 10 10 9 9 8
5 11 3 1 9 8 11 10 8 8 7 8 8 9 11 11 12 12 12 11 9 9 12 10 11 16 14 12 11 12 12 12 15 17 16 16 16 11 10 9 9 9 9 9 8
7 7 2 2 12 11 8 9 8 8 8 9 9 8 8 11 14 11 11 8 8 8 10 10 13 18 16 14 13 14 12 12 12 14 16 18 16 10 11 10 10 10 9 8 7
6 10 6 5 6 9 10 10 10 7 8 7 8 8 9 10 9 12 11 8 8 8 8 8 12 14 17 15 12 15 14 12 13 17 15 15 14 11 10 10 10 9 9 8 8
6 9 7 11 10 9 8 9 10 10 7 7 9 9 10 12 11 11 10 9 9 8 9 9 14 13 12 12 11 12 13 12 13 13 16 14 14 12 10 10 9 8 8 8 8
8 9 8 9 8 9 9 10 10 9 9 10 10 9 9 11 10 12 10 10 10 9 10 9 14 13 14 12 12 13 12 12 12 12 12 12 13 9 9 8 9 8 8 9 9
5 5 7 9 10 10 10 9 9 8 7 7 8 9 9 9 8 8 8 8 8 10 11 11 13 14 17 13 13 16 14 12 12 10 11 13 11 10 10 9 8 8 8 8 7